1379116829230,3.50988
1379116889230,3.51563
1379116949230,3.55225
1379117009230,3.57090
1379117069230,3.57359
1379117129230,3.54677
1379117189230,3.54040
1379117249230,3.56640
1379117309230,3.54944
1379117369230,3.53797
1379117429230,3.52382
1379117489230,3.54138
1379117549230,3.52544
1379117609230,3.58069
1379117669230,3.57151
1379117729230,3.51892
1379117789230,3.54504
1379117849230,3.56024
1379117909230,3.53834
1379117969230,3.57129
1379118029230,3.53069
1379118089230,3.56813
1379118149230,3.54929
1379118209230,3.56568
1379118269230,3.54294
1379118329230,3.55614
1379118389230,3.55069
1379118449230,3.54896
1379118509230,3.55890
1379118569230,3.55412
1379118629230,3.59257
1379118689230,3.57698
1379118749230,3.58038
1379118809230,3.53867
1379118869230,3.56156
1379118929230,3.55594
1379118989230,3.53776
1379119049230,3.56526
1379119109230,3.54514
1379119169230,3.54080
1379119229230,3.55522
1379119289230,3.54859
1379119349230,3.55260
1379119409230,3.54050
1379119469230,3.55328
1379119529230,3.53184
1379119589230,3.55157
1379119649230,3.55445
1379119709230,3.53684
1379119769230,3.54217
1379119829230,3.55060
1379119889230,3.54528
1379119949230,3.59056
1379120009230,3.54681
1379120069230,3.55282
1379120129230,3.54747
1379120189230,3.57289
1379120249230,3.55244
1379120309230,3.55695
1379120369230,3.57877
1379120429241,3.56698
1379120489241,3.56368
1379120549241,3.55493
1379120609241,3.54811
1379120669241,3.54766
1379120729241,3.58957
1379120789241,3.57555
1379120849241,3.56853
1379120909241,3.54896
1379120969241,3.57801
1379121029241,3.53452
1379121089241,3.56078
1379121149241,3.58092
1379121209241,3.56578
1379121269241,3.57183
1379121329241,3.54360
1379121389241,3.54846
1379121449241,3.53646
1379121509241,3.56445
1379121569241,3.59191
1379121629241,3.55772
1379121689241,3.60611
1379121749241,3.55130
1379121809241,3.55243
1379121869241,3.54972
1379121929241,3.56942
1379121989241,3.54720
1379122049241,3.57729
1379122109241,3.57248
1379122169241,3.56587
1379122229241,3.55051
1379122289241,3.52490
1379122349241,3.56422
1379122409241,3.55164
1379122469241,3.53552
1379122529241,3.56996
1379122589241,3.55332
1379122649241,3.52990
1379122709241,3.56494
1379122769241,3.56350
1379122829241,3.57486
1379122889241,3.53399
1379122949241,3.52085
1379123009241,3.55990
1379123069241,3.53799
1379123129241,3.55518
1379123189241,3.53021
1379123249241,3.53473
1379123309241,3.53414
1379123369241,3.54461
1379123429241,3.52617
1379123489241,3.53497
1379123549241,3.48570
1379123609241,3.49455
1379123669241,3.50973
1379123729241,3.53443
1379123789241,3.52005
1379123849241,3.53051
1379123909241,3.57791
1379123969241,3.51954
1379124029251,3.50210
1379124089251,3.49760
1379124149251,3.51609
1379124209251,3.51939
1379124269251,3.51237
1379124329251,3.50207
1379124389251,3.54948
1379124449251,3.55788
1379124509251,3.50696
1379124569251,3.52490
1379124629251,3.51264
1379124689251,3.51613
1379124749251,3.51419
1379124809251,3.50005
1379124869251,3.49922
1379124929251,3.50384
1379124989251,3.49166
1379125049251,3.52701
1379125109251,3.51433
1379125169251,3.48552
1379125229251,3.49041
1379125289251,3.51652
1379125349251,3.51063
1379125409251,3.47153
1379125469251,3.49951
1379125529251,3.48998
1379125589251,3.50576
1379125649251,3.50597
1379125709251,3.51065
1379125769251,3.50847
1379125829251,3.50421
1379125889251,3.51221
1379125949251,3.50289
1379126009251,3.55874
1379126069251,3.52565
1379126129251,3.46665
1379126189251,3.51911
1379126249251,3.51313
1379126309251,3.51134
1379126369251,3.46292
1379126429251,3.50107
1379126489251,3.50367
1379126549251,3.49303
1379126609251,3.50348
1379126669251,3.49536
1379126729251,3.52448
1379126789251,3.50659
1379126849251,3.53131
1379126909251,3.46352
1379126969251,3.51640
1379127029251,3.51258
1379127089251,3.49979
1379127149251,3.49259
1379127209251,3.48805
1379127269251,3.53911
1379127329251,3.52689
1379127389251,3.51391
1379127449251,3.49315
1379127509251,3.52483
1379127569251,3.51511
1379127629261,3.49890
1379127689261,3.51394
1379127749261,3.49312
1379127809261,3.50380
1379127869261,3.51077
1379127929261,3.51110
1379127989261,3.51145
1379128049261,3.49804
1379128109261,3.51649
1379128169261,3.49988
1379128229261,3.50710
1379128289261,3.49808
1379128349261,3.53704
1379128409261,3.52390
1379128469261,3.50472
1379128529261,3.48487
1379128589261,3.49619
1379128649261,3.52443
1379128709261,3.57334
1379128769261,3.64281
1379128829261,3.48334
1379128889261,3.50539
1379128949261,3.52507
1379129009261,3.49359
1379129069261,3.54019
1379129129261,3.54855
1379129189261,3.51857
1379129249261,3.54754
1379129309261,3.52089
1379129369261,3.50046
1379129429261,3.51932
1379129489261,3.50979
1379129549261,3.55587
1379129609261,3.52036
1379129669261,3.56764
1379129729261,3.51740
1379129789261,3.52077
1379129849261,3.52606
1379129909261,3.53081
1379129969261,3.52147
1379130029261,3.52730
1379130089261,3.52094
1379130149261,3.52411
1379130209261,3.57232
1379130269261,3.53011
1379130329261,3.54063
1379130389261,3.53463
1379130449261,3.51659
1379130509261,3.54167
1379130569261,3.52314
1379130629261,3.53223
1379130689261,3.49301
1379130749261,3.50894
1379130809261,3.50132
1379130869261,3.50312
1379130929261,3.55162
1379130989261,3.53630
1379131049261,3.51797
1379131109261,3.51236
1379131169261,3.48892
1379131229271,3.52343
1379131289271,3.52916
1379131349271,3.56003
1379131409271,3.52789
1379131469271,3.51778
1379131529271,3.49797
1379131589271,3.56091
1379131649271,3.53754
1379131709271,3.50993
1379131769271,3.54904
1379131829271,3.49538
1379131889271,3.56472
1379131949271,3.50902
1379132009271,3.56096
1379132069271,3.52414
1379132129271,3.53079
1379132189271,3.50183
1379132249271,3.52471
1379132309271,3.52926
1379132369271,3.53116
1379132429271,3.55295
1379132489271,3.51374
1379132549271,3.53353
1379132609271,3.53704
1379132669271,3.52737
1379132729271,3.53032
1379132789271,3.52267
1379132849271,3.54261
1379132909271,3.53997
1379132969271,3.53724
1379133029271,3.54353
1379133089271,3.51230
1379133149271,3.56944
1379133209271,3.51541
1379133269271,3.53257
1379133329271,3.53784
1379133389271,3.52341
1379133449271,3.53467
1379133509271,3.56244
1379133569271,3.51629
1379133629271,3.52927
1379133689271,3.52504
1379133749271,3.52584
1379133809271,3.53481
1379133869271,3.55214
1379133929271,3.56457
1379133989271,3.50291
1379134049271,3.51314
1379134109271,3.51705
1379134169271,3.52796
1379134229271,3.54142
1379134289271,3.52733
1379134349271,3.49554
1379134409271,3.56378
1379134469271,3.51199
1379134529271,3.53487
1379134589271,3.55933
1379134649271,3.51392
1379134709271,3.50933
1379134769271,3.52542
1379134829281,3.53573
1379134889281,3.49950
1379134949281,3.51033
1379135009281,3.52029
1379135069281,3.51717
1379135129281,3.51917
1379135189281,3.50924
1379135249281,3.52221
1379135309281,3.53924
1379135369281,3.52127
1379135429281,3.48334
1379135489281,3.54174
1379135549281,3.52833
1379135609281,3.49240
1379135669281,3.48866
1379135729281,3.52020
1379135789281,3.51158
1379135849281,3.49731
1379135909281,3.53725
1379135969281,3.51357
1379136029281,3.51756
1379136089281,3.49893
1379136149281,3.52312
1379136209281,3.53124
1379136269281,3.50311
1379136329281,3.50081
1379136389281,3.53164
1379136449281,3.52323
1379136509281,3.50839
1379136569281,3.55396
1379136629281,3.54769
1379136689281,3.51985
1379136749281,3.52039
1379136809281,3.54793
1379136869281,3.53306
1379136929281,3.50196
1379136989281,3.53240
1379137049281,3.50365
1379137109281,3.54914
1379137169281,3.52096
1379137229281,3.55430
1379137289281,3.52900
1379137349281,3.51670
1379137409281,3.53777
1379137469281,3.55058
1379137529281,3.52193
1379137589281,3.55802
1379137649281,3.52887
1379137709281,3.51680
1379137769281,3.52611
1379137829281,3.54129
1379137889281,3.52137
1379137949281,3.51706
1379138009281,3.54536
1379138069281,3.55007
1379138129281,3.51291
1379138189281,3.56457
1379138249281,3.55459
1379138309281,3.55205
1379138369281,3.53134
1379138429291,3.52106
1379138489291,3.54180
1379138549291,3.56834
1379138609291,3.54126
1379138669291,3.51568
1379138729291,3.52501
1379138789291,3.53612
1379138849291,3.51626
1379138909291,3.55870
1379138969291,3.49797
1379139029291,3.46838
1379152349340,3.56146
1379152409340,3.59159
1379152469340,3.58459
1379152529340,3.56013
1379152589340,3.55873
1379152649340,3.54628
1379152709340,3.75912
1379152769340,3.55674
1379152829350,3.56237
1379152889350,3.54041
1379152949350,3.57865
1379153009350,3.54441
1379153069350,3.55791
1379153129350,3.56718
1379153189350,3.60397
1379153249350,3.57842
1379153309350,3.59515
1379153369350,3.56691
1379153429350,3.53796
1379153489350,3.59122
1379153549350,3.52786
1379153609350,3.57478
1379153669350,3.57207
1379153729350,3.54915
1379153789350,3.55877
1379153849350,3.56749
1379153909350,3.51698
1379153969350,3.53734
1379154029350,3.55748
1379154089350,3.52989
1379154149350,3.58869
1379154209350,3.57968
1379154269350,3.53854
1379154329350,3.59313
1379154389350,3.55591
1379154449350,3.55666
1379154509350,3.57511
1379154569350,3.55239
1379154629350,3.52036
1379154689350,3.53526
1379154749350,3.54841
1379154809350,3.55802
1379154869350,3.55727
1379154929350,3.57096
1379154989350,3.55222
1379155049350,3.52157
1379155109350,3.57787
1379155169350,3.59071
1379155229350,3.55925
1379155289350,3.56978
1379155349350,3.56198
1379155409350,3.56407
1379155469350,3.54908
1379155529350,3.58713
1379155589350,3.55367
1379155649350,3.58044
1379155709350,3.57982
1379155769350,3.55689
1379155829350,3.58933
1379155889350,3.52219
1379155949350,3.52733
1379156009350,3.57114
1379156069350,3.54415
1379156129350,3.58237
1379156189350,3.58299
1379156249350,3.57713
1379156309350,3.53271
1379156369350,3.55134
1379156429361,3.56072
1379156489361,3.55670
1379156549361,3.55537
1379156609361,3.56505
1379156669361,3.53423
1379156729361,3.55602
1379156789361,3.54493
1379156849361,3.53257
1379156909361,3.55782
1379156969361,3.56367
1379157029361,3.56153
1379157089361,3.52540
1379157149361,3.57963
1379157209361,3.53851
1379157269361,3.55909
1379157329361,3.56007
1379157389361,3.52293
1379157449361,3.57140
1379157509361,3.56796
1379157569361,3.54017
1379157629361,3.54034
1379157689361,3.55933
1379157749361,3.56843
1379157809361,3.58530
1379157869361,3.55075
1379157929361,3.54859
1379157989361,3.57053
1379158049361,3.54049
1379158109361,3.54449
1379158169361,3.53834
1379158229361,3.52707
1379158289361,3.54888
1379158349361,3.54310
1379158409361,3.53363
1379158469361,3.50796
1379158529361,3.57670
1379158589361,3.55617
1379158649361,3.56581
1379158709361,3.58099
1379158769361,3.53045
1379158829361,3.54524
1379158889361,3.55774
1379158949361,3.54811
1379159009361,3.53169
1379159069361,3.51331
1379159129361,3.52485
1379159189361,3.54483
1379159249361,3.55854
1379159309361,3.55444
1379159369361,3.56182
1379159429361,3.56189
1379159489361,3.54419
1379159549361,3.57003
1379159609361,3.55467
1379159669361,3.57652
1379159729361,3.57918
1379159789361,3.55006
1379159849361,3.55036
1379159909361,3.58886
1379159969361,3.57334
1379160029372,3.54464
1379160089372,3.55928
1379160149372,3.55493
1379160209372,3.57108
1379160269372,3.58382
1379160329372,3.55684
1379160389372,3.59261
1379160449372,3.56237
1379160509372,3.57811
1379160569372,3.56985
1379160629372,3.56317
1379160689372,3.55024
1379160749372,3.56162
1379160809372,3.57630
1379160869372,3.58236
1379160929372,3.57166
1379160989372,3.58974
1379161049372,3.57228
1379161109372,3.53790
1379161169372,3.56115
1379161229372,3.58576
1379161289372,3.57995
1379161349372,3.56599
1379161409372,3.57100
1379161469372,3.57035
1379161529372,3.55030
1379161589372,3.56892
1379161649372,3.55518
1379161709372,3.56411
1379161769372,3.57776
1379161829372,3.58635
1379161889372,3.56817
1379161949372,3.55196
1379162009372,3.56955
1379162069372,3.57568
1379162129372,3.57780
1379162189372,3.57003
1379162249372,3.57387
1379162309372,3.53881
1379162369372,3.58827
1379162429372,3.54472
1379162489372,3.55896
1379162549372,3.57511
1379162609372,3.55853
1379162669372,3.56314
1379162729372,3.56504
1379162789372,3.55653
1379162849372,3.57464
1379162909372,3.60050
1379162969372,3.58927
1379163029372,3.59052
1379163089372,3.57064
1379163149372,3.57437
1379163209372,3.58755
1379163269372,3.56981
1379163329372,3.60099
1379163389372,3.59339
1379163449372,3.55244
1379163509372,3.58044
1379163569372,3.55154
1379163629384,3.55132
1379163689384,3.55653
1379163749384,3.57165
1379163809384,3.56828
1379163869384,3.59814
1379163929384,3.55688
1379163989384,3.58469
1379164049384,3.55351
1379164109384,3.56105
1379164169384,3.56747
1379164229384,3.55142
1379164289384,3.57673
1379164349384,3.56040
1379164409384,3.52576
1379164469384,3.57229
1379164529384,3.55702
1379164589384,3.59442
1379164649384,3.58637
1379164709384,3.58879
1379164769384,3.57807
1379164829384,3.58649
1379164889384,3.57121
1379164949384,3.56783
1379165009384,3.59556
1379165069384,3.54330
1379165129384,3.58956
1379165189384,3.58764
1379165249384,3.56421
1379165309384,3.57724
1379165369384,3.56299
1379165429384,3.62267
1379165489384,3.55769
1379165549384,3.58065
1379165609384,3.56851
1379165669384,3.58136
1379165729384,3.56817
1379165789384,3.58671
1379165849384,3.55429
1379165909384,3.55947
1379165969384,3.56249
1379166029384,3.55647
1379166089384,3.56379
1379166149384,3.56744
1379166209384,3.57297
1379166269384,3.54532
1379166329384,3.57682
1379166389384,3.57592
1379166449384,3.55505
1379166509384,3.55931
1379166569384,3.57451
1379166629384,3.58088
1379166689384,3.56685
1379166749384,3.58574
1379166809384,3.58356
1379166869384,3.54743
1379166929384,3.57782
1379166989384,3.58378
1379167049384,3.58197
1379167109384,3.54746
1379167169384,3.53933
1379167229395,3.59083
1379167289395,3.59054
1379167349395,3.56847
1379167409395,3.59491
1379167469395,3.57313
1379167529395,3.57032
1379167589395,3.57213
1379167649395,3.57530
1379167709395,3.56374
1379167769395,3.56177
1379167829395,3.55419
1379167889395,3.57154
1379167949395,3.57009
1379168009395,3.58005
1379168069395,3.57148
1379168129395,3.58368
1379168189395,3.58986
1379168249395,3.56298
1379168309395,3.59546
1379168369395,3.54146
1379168429395,3.59295
1379168489395,3.60233
1379168549395,3.58467
1379168609395,3.57488
1379168669395,3.57986
1379168729395,3.57273
1379168789395,3.55365
1379168849395,3.56028
1379168909395,3.55418
1379168969395,3.56028
1379169029395,3.56489
1379169089395,3.56650
1379169149395,3.56362
1379169209395,3.57632
1379169269395,3.58313
1379169329395,3.57150
1379169389395,3.55084
1379169449395,3.57344
1379169509395,3.57963
1379169569395,3.55539
1379169629395,3.55500
1379169689395,3.55929
1379169749395,3.58724
1379169809395,3.57401
1379169869395,3.54367
1379169929395,3.55220
1379169989395,3.59929
1379170049395,3.56358
1379170109395,3.56807
1379170169395,3.59923
1379170229395,3.59267
1379170289395,3.58163
1379170349395,3.57258
1379170409395,3.55654
1379170469395,3.59491
1379170529395,3.58390
1379170589395,3.57046
1379170649395,3.53814
1379170709395,3.54767
1379170769395,3.58447
1379170829408,3.58061
1379170889408,3.59940
1379170949408,3.58918
1379171009408,3.53959
1379171069408,3.58799
1379171129408,3.53950
1379171189408,3.57354
1379171249408,3.54711
1379171309408,3.59079
1379171369408,3.56979
1379171429408,3.60035
1379171489408,3.58544
1379171549408,3.57690
1379171609408,3.57369
1379171669408,3.57287
1379171729408,3.55214
1379171789408,3.57022
1379171849408,3.59353
1379171909408,3.54262
1379171969408,3.55699
1379172029408,3.58965
1379172089408,3.58985
1379172149408,3.58125
1379172209408,3.54337
1379172269408,3.56075
1379172329408,3.55702
1379172389408,3.58723
1379172449408,3.56638
1379172509408,3.58548
1379172569408,3.58076
1379172629408,3.57752
1379172689408,3.57082
1379172749408,3.54153
1379172809408,3.55968
1379172869408,3.57798
1379172929408,3.55535
1379172989408,3.58096
1379173049408,3.56999
1379173109408,3.55182
1379173169408,3.58051
1379173229408,3.58957
1379173289408,3.54823
1379173349408,3.53249
1379173409408,3.57491
1379173469408,3.57724
1379173529408,3.52724
1379173589408,3.57943
1379173649408,3.55998
1379173709408,3.56547
1379173769408,3.55685
1379173829408,3.54127
1379173889408,3.57773
1379173949408,3.56782
1379174009408,3.58193
1379174069408,3.54382
1379174129408,3.57785
1379174189408,3.57996
1379174249408,3.57953
1379174309408,3.56771
1379174369408,3.56639
1379174429420,3.55798
1379174489420,3.55786
1379174549420,3.57268
1379174609420,3.55814
1379174669420,3.57149
1379174729420,3.55206
1379174789420,3.56787
1379174849420,3.58137
1379174909420,3.59339
1379174969420,3.57180
1379175029420,3.57553
1379175089420,3.56169
1379175149420,3.52787
1379175209420,3.56778
1379175269420,3.56323
1379175329420,3.57373
1379175389420,3.56244
1379175449420,3.57500
1379175509420,3.56839
1379175569420,3.57213
1379175629420,3.56524
1379175689420,3.55497
1379175749420,3.59683
1379175809420,3.56010
1379175869420,3.56653
1379175929420,3.57556
1379175989420,3.60144
1379176049420,3.59393
1379176109420,3.56924
1379176169420,3.57405
1379176229420,3.59247
1379176289420,3.56970
1379176349420,3.57181
1379176409420,3.59678
1379176469420,3.60075
1379176529420,3.57454
1379176589420,3.54991
1379176649420,3.55019
1379176709420,3.57042
1379176769420,3.57993
1379176829420,3.55329
1379176889420,3.55708
1379176949420,3.59346
1379177009420,3.56185
1379177069420,3.61048
1379177129420,3.59727
1379177189420,3.60462
1379177249420,3.58549
1379177309420,3.55704
1379177369420,3.60392
1379177429420,3.57445
1379177489420,3.57137
1379177549420,3.60466
1379177609420,3.57010
1379177669420,3.58930
1379177729420,3.59537
1379177789420,3.60647
1379177849420,3.60111
1379177909420,3.55354
1379177969420,3.59414
1379178029433,3.59812
1379178089433,3.56249
1379178149433,3.62184
1379178209433,3.56868
1379178269433,3.57824
1379178329433,3.58218
1379178389433,3.58549
1379178449433,3.58260
1379178509433,3.57619
1379178569433,3.55671
1379178629433,3.58086
1379178689433,3.59341
1379178749433,3.59989
1379178809433,3.57584
1379178869433,3.58291
1379178929433,3.54778
1379178989433,3.59870
1379179049433,3.60009
1379179109433,3.56919
1379179169433,3.58499
1379179229433,3.56449
1379179289433,3.62590
1379179349433,3.59193
1379179409433,3.54241
1379179469433,3.57849
1379179529433,3.54551
1379179589433,3.59249
1379179649433,3.56334
1379179709433,3.58896
1379179769433,3.55938
1379179829433,3.62589
1379179889433,3.61082
1379179949433,3.60445
1379180009433,3.57281
1379180069433,3.59150
1379180129433,3.60344
1379180189433,3.57665
1379180249433,3.58985
1379180309433,3.59148
1379180369433,3.60036
1379180429433,3.59360
1379180489433,3.60752
1379180549433,3.57427
1379180609433,3.58227
1379180669433,3.55976
1379180729433,3.59532
1379180789433,3.59801
1379180849433,3.59389
1379180909433,3.61044
1379180969433,3.60574
1379181029433,3.58279
1379181089433,3.61438
1379181149433,3.60532
1379181209433,3.61928
1379181269433,3.60334
1379181329433,3.59100
1379181389433,3.62443
1379181449433,3.58559
1379181509433,3.61211
1379181569433,3.59549
1379181629446,3.59817
1379181689446,3.60549
1379181749446,3.60920
1379181809446,3.58400
1379181869446,3.58443
1379181929446,3.66408
1379181989446,3.59171
1379182049446,3.60662
1379182109446,3.59894
1379182169446,3.60565
1379182229446,3.58688
1379182289446,3.60157
1379182349446,3.65223
1379182409446,3.61716
1379182469446,3.62531
1379182529446,3.60912
1379182589446,3.60661
1379182649446,3.60540
1379182709446,3.60002
1379182769446,3.65043
1379182829446,3.59055
1379182889446,3.60534
1379182949446,3.61463
1379183009446,3.62201
1379183069446,3.61872
1379183129446,3.61649
1379183189446,3.60238
1379183249446,3.62908
1379183309446,3.60991
1379183369446,3.60232
1379183429446,3.61129
1379183489446,3.60544
1379183549446,3.57557
1379183609446,3.60102
1379183669446,3.60357
1379183729446,3.61508
1379183789446,3.62168
1379183849446,3.60208
1379183909446,3.62140
1379183969446,3.63021
1379184029446,3.58946
1379184089446,3.63960
1379184149446,3.64321
1379184209446,3.62958
1379184269446,3.61183
1379184329446,3.65854
1379184389446,3.63343
1379184449446,3.64026
1379184509446,3.60535
1379184569446,3.63358
1379184629446,3.62409
1379184689446,3.61758
1379184749446,3.60901
1379184809446,3.62698
1379184869446,3.60678
1379184929446,3.61548
1379184989446,3.58683
1379185049446,3.62051
1379185109446,3.63900
1379185169446,3.59675
1379185229458,3.62803
1379185289458,3.63640
1379185349458,3.61065
1379185409458,3.60747
1379185469458,3.62049
1379185529458,3.63492
1379185589458,3.62580
1379185649458,3.63510
1379185709458,3.62225
1379185769458,3.61508
1379185829458,3.62744
1379185889458,3.61936
1379185949458,3.59861
1379186009458,3.64334
1379186069458,3.63283
1379186129458,3.61268
1379186189458,3.60304
1379186249458,3.64873
1379186309458,3.60571
1379186369458,3.62307
1379186429458,3.64631
1379186489458,3.64605
1379186549458,3.61446
1379186609458,3.64232
1379186669458,3.64603
1379186729458,3.61505
1379186789458,3.63812
1379186849458,3.64792
1379186909458,3.64154
1379186969458,3.65497
1379187029458,3.62658
1379187089458,3.63631
1379187149458,3.62323
1379187209458,3.62791
1379187269458,3.63800
1379187329458,3.61703
1379187389458,3.63640
1379187449458,3.65363
1379187509458,3.64313
1379187569458,3.63514
1379187629458,3.64372
1379187689458,3.61543
1379187749458,3.64964
1379187809458,3.64596
1379187869458,3.63973
1379187929458,3.58807
1379187989458,3.62110
1379188049458,3.63437
1379188109458,3.63534
1379188169458,3.63784
1379188229458,3.62067
1379188289458,3.65993
1379188349458,3.61460
1379188409458,3.65212
1379188469458,3.62687
1379188529458,3.64011
1379188589458,3.62660
1379188649458,3.63707
1379188709458,3.63890
1379188769458,3.63568
1379188829471,3.62602
1379188889471,3.62215
1379188949471,3.63585
1379189009471,3.61299
1379189069471,3.62327
1379189129471,3.64232
1379189189471,3.62783
1379189249471,3.61448
1379189309471,3.65801
1379189369471,3.63312
1379189429471,3.65265
1379189489471,3.64556
1379189549471,3.63879
1379189609471,3.63816
1379189669471,3.62879
1379189729471,3.62307
1379189789471,3.63636
1379189849471,3.61235
1379189909471,3.63290
1379189969471,3.59720
1379190029471,3.62628
1379190089471,3.60277
1379190149471,3.64081
1379190209471,3.59201
1379190269471,3.61118
1379190329471,3.65490
1379190389471,3.64009
1379190449471,3.59475
1379190509471,3.64149
1379190569471,3.58302
1379190629471,3.62350
1379190689471,3.60906
1379190749471,3.62182
1379190809471,3.63197
1379190869471,3.58944
1379190929471,3.58891
1379190989471,3.62520
1379191049471,3.60058
1379191109471,3.60758
1379191169471,3.62292
1379191229471,3.61483
1379191289471,3.63729
1379191349471,3.62796
1379191409471,3.61189
1379191469471,3.60464
1379191529471,3.61827
1379191589471,3.58121
1379191649471,3.62520
1379191709471,3.62278
1379191769471,3.62427
1379191829471,3.61525
1379191889471,3.60889
1379191949471,3.62036
1379192009471,3.64747
1379192069471,3.62044
1379192129471,3.62446
1379192189471,3.62811
1379192249471,3.60814
1379192309471,3.60899
1379192369471,3.62175
1379192429483,3.62425
1379192489483,3.62805
1379192549483,3.60643
1379192609483,3.61306
1379192669483,3.61509
1379192729483,3.62961
1379192789483,3.59173
1379192849483,3.60988
1379192909483,3.62360
1379192969483,3.61371
1379193029483,3.63542
1379193089483,3.60695
1379193149483,3.59426
1379193209483,3.61333
1379193269483,3.61430
1379193329483,3.59941
1379193389483,3.64232
1379193449483,3.61366
1379193509483,3.63787
1379193569483,3.62422
1379193629483,3.59931
1379193689483,3.60085
1379193749483,3.61401
1379193809483,3.62960
1379193869483,3.61447
1379193929483,3.62500
1379193989483,3.61885
1379194049483,3.59357
1379194109483,3.60334
1379194169483,3.63821
1379194229483,3.63003
1379194289483,3.63548
1379194349483,3.62710
1379194409483,3.64626
1379194469483,3.59951
1379194529483,3.58238
1379194589483,3.61379
1379194649483,3.63205
1379194709483,3.58467
1379194769483,3.62373
1379194829483,3.63010
1379194889483,3.63065
1379194949483,3.59382
1379195009483,3.58798
1379195069483,3.62600
1379195129483,3.62115
1379195189483,3.66640
1379195249483,3.69244
1379195309483,3.62810
1379195369483,3.63371
1379195429483,3.59487